KE4OGG Weather Reports


time (UTC)temp
C
wind
direction
speed
KPH
gust
KPH
rain 1hr
cm
rain 24hr
cm
rain mn
cm
humidity
%
barometer
mb
20260509032525 15 0 0.0 1.6 0.00 0.00 0.00 61 1015.9
20260509032023 15 0 0.0 0.0 0.00 0.00 0.00 62 1015.9
20260509031540 15 0 0.0 0.0 0.00 0.00 0.00 62 1015.7
20260509031024 15 0 0.0 0.0 0.00 0.00 0.00 63 1015.6
20260509030526 15 0 0.0 0.0 0.00 0.00 0.00 62 1015.8
20260509030038 15 0 0.0 0.0 0.00 0.00 0.00 62 1015.7
20260509025523 15 0 0.0 0.0 0.00 0.00 0.00 62 1015.6
20260509025024 15 0 0.0 0.0 0.00 0.00 0.00 62 1015.7
20260509024537 15 0 0.0 0.0 0.00 0.00 0.00 62 1015.6
20260509024023 15 0 0.0 0.0 0.00 0.00 0.00 62 1015.5
20260509023523 15 0 0.0 0.0 0.00 0.00 0.00 62 1015.6
20260509023040 15 0 0.0 0.0 0.00 0.00 0.00 62 1015.6
20260509022525 15 0 0.0 0.0 0.00 0.00 0.00 61 1015.5
20260509022024 15 0 0.0 0.0 0.00 0.00 0.00 61 1015.6
20260509021538 15 0 0.0 0.0 0.00 0.00 0.00 61 1015.6
20260509021025 15 0 0.0 0.0 0.00 0.00 0.00 61 1015.7
20260509020526 15 0 0.0 0.0 0.00 0.00 0.00 60 1015.6
20260509020039 15 0 0.0 0.0 0.00 0.00 0.00 60 1015.4
20260509015526 16 0 0.0 0.0 0.00 0.00 0.00 59 1015.4
20260509015024 16 0 0.0 0.0 0.00 0.00 0.00 59 1015.5
20260509014540 16 0 0.0 0.0 0.00 0.00 0.00 57 1015.5
20260509014030 16 0 0.0 0.0 0.00 0.00 0.00 58 1015.3
20260509013523 16 0 0.0 0.0 0.00 0.00 0.00 57 1015.3
20260509013038 16 0 0.0 0.0 0.00 0.00 0.00 57 1015.3
20260509012523 16 0 0.0 0.0 0.00 0.00 0.00 56 1015.1
20260509012022 16 0 0.0 0.0 0.00 0.00 0.00 57 1015.2
20260509011543 16 0 0.0 0.0 0.00 0.00 0.00 56 1015.1
20260509011023 16 0 0.0 0.0 0.00 0.00 0.00 56 1015.1
20260509010523 16 0 0.0 0.0 0.00 0.00 0.00 56 1015.2
20260509010041 16 0 0.0 1.6 0.00 0.00 0.00 55 1015.1
20260509005523 16 0 0.0 1.6 0.00 0.00 0.00 55 1015.0
20260509005023 16 127 0.0 1.6 0.00 0.00 0.00 55 1015.0
20260509004541 16 0 0.0 1.6 0.00 0.00 0.00 55 1015.0
20260509004023 16 0 0.0 3.2 0.00 0.00 0.00 55 1015.1
20260509003526 17 0 0.0 3.2 0.00 0.00 0.00 54 1014.8
20260509003042 17 0 0.0 3.2 0.00 0.00 0.00 54 1015.0
20260509002522 17 107 0.0 4.8 0.00 0.00 0.00 54 1015.0
20260509002022 17 0 0.0 4.8 0.00 0.00 0.00 53 1015.1
20260509001538 17 98 1.6 4.8 0.00 0.00 0.00 53 1015.1
20260509001023 17 0 0.0 3.2 0.00 0.00 0.00 53 1015.2
20260509000523 17 98 1.6 8.0 0.00 0.00 0.00 52 1015.0
20260509000037 17 131 1.6 8.0 0.00 0.00 0.00 53 1015.0
20260508235526 17 96 3.2 8.0 0.00 0.00 0.00 52 1015.0
20260508235024 17 110 1.6 4.8 0.00 0.00 0.00 53 1014.8
20260508234546 17 107 0.0 3.2 0.00 0.00 0.00 53 1015.0
20260508234024 18 0 0.0 3.2 0.00 0.00 0.00 53 1015.0
20260508233523 18 109 0.0 3.2 0.00 0.00 0.00 52 1015.0
20260508233041 18 108 1.6 3.2 0.00 0.00 0.00 52 1014.8
20260508232522 18 105 0.0 3.2 0.00 0.00 0.00 52 1014.7
20260508232023 18 108 1.6 3.2 0.00 0.00 0.00 51 1014.9
20260508231555 18 0 0.0 3.2 0.00 0.00 0.00 51 1015.1
20260508231025 18 0 0.0 3.2 0.00 0.00 0.00 51 1015.0
20260508230525 18 80 1.6 4.8 0.00 0.00 0.00 50 1015.0
20260508230048 18 0 0.0 4.8 0.00 0.00 0.00 51 1014.9
20260508225525 18 103 1.6 3.2 0.00 0.00 0.00 50 1014.9
20260508225024 18 0 0.0 3.2 0.00 0.00 0.00 50 1014.9
20260508224538 18 86 0.0 9.7 0.00 0.00 0.00 49 1014.9
20260508224023 18 123 3.2 9.7 0.00 0.00 0.00 49 1014.9
20260508223523 19 109 0.0 8.0 0.00 0.00 0.00 48 1014.8
20260508223042 19 115 1.6 8.0 0.00 0.00 0.00 48 1014.9
20260508222524 19 115 3.2 8.0 0.00 0.00 0.00 48 1014.9
20260508222023 19 146 3.2 6.4 0.00 0.00 0.00 46 1014.8
20260508221541 19 78 3.2 4.8 0.00 0.00 0.00 46 1014.8
20260508221023 20 0 0.0 4.8 0.00 0.00 0.00 46 1014.8
20260508220522 19 93 1.6 6.4 0.00 0.00 0.00 46 1014.6
20260508220043 19 87 1.6 6.4 0.00 0.00 0.00 44 1014.7
20260508215526 19 105 1.6 9.7 0.00 0.00 0.00 44 1014.7
20260508215023 20 107 1.6 9.7 0.00 0.00 0.00 44 1014.8
20260508214550 20 96 4.8 8.0 0.00 0.00 0.00 43 1014.6
20260508214023 20 111 1.6 4.8 0.00 0.00 0.00 46 1014.8
20260508213523 20 0 1.6 6.4 0.00 0.00 0.00 43 1014.7
20260508213046 20 91 1.6 6.4 0.00 0.00 0.00 43 1014.6
20260508212524 20 92 0.0 12.9 0.00 0.00 0.00 42 1014.5
20260508212023 20 94 4.8 12.9 0.00 0.00 0.00 42 1014.7
20260508211541 20 116 0.0 9.7 0.00 0.00 0.00 42 1014.7
20260508211023 20 90 3.2 11.3 0.00 0.00 0.00 41 1014.6
20260508210523 21 0 1.6 11.3 0.00 0.00 0.00 41 1014.9
20260508210045 21 138 1.6 4.8 0.00 0.00 0.00 41 1015.0
20260508205523 20 252 0.0 8.0 0.00 0.00 0.00 41 1014.9
20260508205025 20 245 0.0 16.1 0.00 0.00 0.00 41 1014.6
20260508204540 20 110 4.8 16.1 0.00 0.00 0.00 40 1014.7
20260508204022 20 110 4.8 11.3 0.00 0.00 0.00 40 1014.6
20260508203522 20 124 4.8 8.0 0.00 0.00 0.00 39 1014.9
20260508203038 21 96 1.6 8.0 0.00 0.00 0.00 39 1014.7
20260508202523 21 96 1.6 8.0 0.00 0.00 0.00 39 1015.0
20260508202023 21 267 0.0 4.8 0.00 0.00 0.00 37 1015.1
20260508201538 21 149 0.0 11.3 0.00 0.00 0.00 40 1015.1
20260508201022 21 174 6.4 11.3 0.00 0.00 0.00 39 1015.2
20260508200522 21 98 1.6 9.7 0.00 0.00 0.00 37 1015.2
20260508200038 22 126 1.6 8.0 0.00 0.00 0.00 35 1015.3
20260508195523 22 203 1.6 11.3 0.00 0.00 0.00 37 1015.2
20260508195024 21 110 0.0 11.3 0.00 0.00 0.00 39 1015.4
20260508194556 21 96 3.2 11.3 0.00 0.00 0.00 35 1015.3
20260508194022 22 0 3.2 11.3 0.00 0.00 0.00 35 1015.5
20260508193523 23 142 1.6 6.4 0.00 0.00 0.00 32 1015.6
20260508193048 23 144 0.0 6.4 0.00 0.00 0.00 34 1015.8
20260508192523 22 138 1.6 6.4 0.00 0.00 0.00 34 1015.8
20260508192023 22 250 1.6 8.0 0.00 0.00 0.00 34 1015.9
20260508191540 23 257 0.0 8.0 0.00 0.00 0.00 31 1015.9
20260508191022 23 155 0.0 6.4 0.00 0.00 0.00 34 1016.0
20260508190525 22 292 1.6 6.4 0.00 0.00 0.00 32 1016.0
20260508190037 22 210 0.0 8.0 0.00 0.00 0.00 36 1016.1
20260508185524 21 288 1.6 11.3 0.00 0.00 0.00 35 1016.1
20260508185022 21 107 1.6 12.9 0.00 0.00 0.00 39 1016.1
20260508184538 21 106 3.2 12.9 0.00 0.00 0.00 35 1016.2
20260508184023 21 138 3.2 11.3 0.00 0.00 0.00 39 1016.3
20260508183523 20 160 4.8 12.9 0.00 0.00 0.00 39 1016.4
20260508183038 20 86 6.4 12.9 0.00 0.00 0.00 40 1016.5
20260508182523 21 91 6.4 12.9 0.00 0.00 0.00 35 1016.7
20260508182024 21 96 3.2 9.7 0.00 0.00 0.00 36 1016.5
20260508181543 22 88 3.2 9.7 0.00 0.00 0.00 35 1016.7
20260508181023 21 102 3.2 12.9 0.00 0.00 0.00 33 1016.7
20260508180523 21 85 3.2 12.9 0.00 0.00 0.00 37 1016.8
20260508180039 20 238 1.6 9.7 0.00 0.00 0.00 37 1016.7
20260508175523 20 115 3.2 9.7 0.00 0.00 0.00 35 1017.0
20260508175024 21 127 6.4 9.7 0.00 0.00 0.00 34 1017.1
20260508174539 22 100 1.6 6.4 0.00 0.00 0.00 35 1017.1
20260508174022 22 139 0.0 3.2 0.00 0.00 0.00 33 1017.1
20260508173523 22 103 1.6 9.7 0.00 0.00 0.00 34 1017.2
20260508173037 21 275 0.0 11.3 0.00 0.00 0.00 38 1017.1
20260508172524 21 111 1.6 11.3 0.00 0.00 0.00 37 1017.3
20260508172023 21 294 3.2 11.3 0.00 0.00 0.00 37 1017.2
20260508171538 20 110 1.6 17.7 0.00 0.00 0.00 35 1017.3
20260508171029 20 106 9.7 17.7 0.00 0.00 0.00 39 1017.6
20260508170523 21 117 3.2 12.9 0.00 0.00 0.00 37 1017.6
20260508170037 21 122 6.4 12.9 0.00 0.00 0.00 36 1017.6
20260508165522 20 249 0.0 19.3 0.00 0.00 0.00 38 1017.8
20260508165023 19 140 8.0 19.3 0.00 0.00 0.00 38 1017.9
20260508164542 20 124 6.4 14.5 0.00 0.00 0.00 38 1017.9
20260508164023 20 285 1.6 14.5 0.00 0.00 0.00 42 1017.9
20260508163522 20 108 8.0 17.7 0.00 0.00 0.00 38 1018.1
20260508163040 20 94 4.8 17.7 0.00 0.00 0.00 41 1018.2
20260508162523 20 86 9.7 17.7 0.00 0.00 0.00 39 1018.2
20260508162022 20 102 1.6 17.7 0.00 0.00 0.00 40 1018.2
20260508161537 20 69 6.4 17.7 0.00 0.00 0.00 40 1018.4
20260508161023 21 101 1.6 9.7 0.00 0.00 0.00 36 1018.4
20260508160523 21 266 1.6 8.0 0.00 0.00 0.00 37 1018.3
20260508160038 20 251 1.6 8.0 0.00 0.00 0.00 36 1018.3
20260508155526 20 109 4.8 8.0 0.00 0.00 0.00 36 1018.4
20260508155023 20 13 1.6 8.0 0.00 0.00 0.00 38 1018.3
20260508154539 20 95 3.2 8.0 0.00 0.00 0.00 39 1018.4
20260508154022 20 169 0.0 6.4 0.00 0.00 0.00 39 1018.5
20260508153523 19 285 1.6 8.0 0.00 0.00 0.00 39 1018.6
20260508153038 19 90 1.6 12.9 0.00 0.00 0.00 41 1018.7
20260508152523 19 0 0.0 12.9 0.00 0.00 0.00 41 1018.7
20260508152025 18 129 6.4 12.9 0.00 0.00 0.00 39 1018.8
20260508151539 18 103 6.4 11.3 0.00 0.00 0.00 37 1018.8
20260508151024 19 52 3.2 9.7 0.00 0.00 0.00 39 1018.8
20260508150524 19 91 1.6 16.1 0.00 0.00 0.00 42 1018.8
20260508150037 18 108 1.6 16.1 0.00 0.00 0.00 40 1018.8
20260508145523 18 94 3.2 16.1 0.00 0.00 0.00 41 1018.7
20260508145023 18 136 4.8 9.7 0.00 0.00 0.00 40 1018.7
20260508144542 18 34 3.2 11.3 0.00 0.00 0.00 43 1018.7
20260508144023 18 110 4.8 11.3 0.00 0.00 0.00 41 1018.7
20260508143523 19 90 4.8 11.3 0.00 0.00 0.00 40 1018.6
20260508143041 18 0 0.0 11.3 0.00 0.00 0.00 47 1018.6
20260508142523 18 98 4.8 11.3 0.00 0.00 0.00 44 1018.6
20260508142023 18 105 3.2 11.3 0.00 0.00 0.00 44 1018.6
20260508141539 18 0 0.0 9.7 0.00 0.00 0.00 44 1018.6
20260508141023 18 133 1.6 9.7 0.00 0.00 0.00 45 1018.7
20260508140526 17 86 1.6 9.7 0.00 0.00 0.00 46 1018.9
20260508140040 17 81 3.2 9.7 0.00 0.00 0.00 45 1018.9
20260508135526 17 90 4.8 9.7 0.00 0.08 0.00 46 1019.0
20260508135024 17 270 0.0 3.2 0.00 0.08 0.00 47 1019.1
20260508134542 17 301 0.0 6.4 0.00 0.08 0.00 47 1019.2
20260508134023 17 108 1.6 6.4 0.00 0.08 0.00 50 1019.2
20260508133528 17 349 1.6 9.7 0.00 0.08 0.00 65 1019.2
20260508133037 16 0 0.0 9.7 0.00 0.08 0.00 67 1019.0
20260508132523 16 295 0.0 1.6 0.00 0.08 0.00 65 1019.1
20260508132023 16 284 0.0 1.6 0.00 0.08 0.00 65 1019.1
20260508131540 15 29 0.0 3.2 0.00 0.08 0.00 68 1019.1
20260508131023 15 0 0.0 3.2 0.00 0.08 0.00 69 1019.1
20260508130522 15 309 0.0 1.6 0.00 0.08 0.00 71 1019.0
20260508130039 15 354 0.0 1.6 0.00 0.08 0.00 72 1019.0
20260508125523 15 0 0.0 3.2 0.00 0.28 0.00 76 1018.9
20260508125023 14 0 0.0 3.2 0.00 0.28 0.00 77 1018.9
20260508124537 13 346 0.0 1.6 0.00 0.28 0.00 79 1018.8
20260508124022 13 0 0.0 1.6 0.00 0.28 0.00 78 1018.6
20260508123522 13 0 0.0 1.6 0.00 0.28 0.00 80 1018.5
20260508123037 12 0 0.0 1.6 0.00 0.28 0.00 81 1018.5
20260508122523 12 0 0.0 3.2 0.00 0.28 0.00 82 1018.4
20260508122022 12 335 0.0 3.2 0.00 0.28 0.00 83 1018.4
20260508121541 12 303 0.0 1.6 0.00 0.28 0.00 85 1018.3
20260508121024 12 0 0.0 1.6 0.00 0.28 0.00 85 1018.3
20260508120523 11 0 0.0 1.6 0.00 0.28 0.00 85 1018.1
20260508120042 11 0 0.0 1.6 0.00 0.28 0.00 86 1018.1
20260508115523 11 0 0.0 1.6 0.00 0.56 0.00 86 1017.9
20260508115022 11 0 0.0 1.6 0.00 0.56 0.00 86 1017.9
20260508114546 11 0 0.0 1.6 0.00 0.56 0.00 86 1018.0
20260508114023 10 0 0.0 0.0 0.00 0.56 0.00 85 1017.9
20260508113523 10 0 0.0 0.0 0.00 0.56 0.00 85 1017.7
20260508113043 10 0 0.0 1.6 0.00 0.56 0.00 85 1017.7
20260508112523 10 0 0.0 1.6 0.00 0.56 0.00 85 1017.7
20260508112023 10 288 0.0 0.0 0.00 0.56 0.00 85 1017.5
20260508111551 9 0 0.0 1.6 0.00 0.56 0.00 85 1017.4
20260508111024 9 0 0.0 1.6 0.00 0.56 0.00 85 1017.2
20260508110523 9 0 0.0 0.0 0.00 0.56 0.00 85 1017.1
20260508110037 9 0 0.0 1.6 0.00 0.56 0.00 85 1017.0
20260508105523 9 0 0.0 1.6 0.00 0.91 0.00 84 1017.0
20260508105022 9 0 0.0 0.0 0.00 0.91 0.00 84 1016.9
20260508104541 9 0 0.0 0.0 0.00 0.91 0.00 84 1016.8
20260508104023 9 0 0.0 0.0 0.00 0.91 0.00 84 1016.7
20260508103523 9 0 0.0 1.6 0.00 0.91 0.00 84 1016.7
20260508103039 9 0 0.0 1.6 0.00 0.91 0.00 84 1016.6
20260508102522 9 288 0.0 0.0 0.00 0.91 0.00 84 1016.5
20260508102023 9 0 0.0 0.0 0.00 0.91 0.00 84 1016.4
20260508101538 9 0 0.0 0.0 0.00 0.91 0.00 84 1016.5
20260508101023 9 0 0.0 0.0 0.00 0.91 0.00 84 1016.4
20260508100522 9 0 0.0 0.0 0.00 0.91 0.00 84 1016.2
20260508100038 9 0 0.0 0.0 0.00 0.91 0.00 84 1016.1
20260508095522 9 0 0.0 0.0 0.00 1.07 0.00 83 1016.1
20260508095022 9 0 0.0 0.0 0.00 1.07 0.00 83 1016.0
20260508094536 9 0 0.0 0.0 0.00 1.07 0.00 83 1015.9
20260508094023 9 0 0.0 1.6 0.00 1.07 0.00 83 1015.8
20260508093524 9 0 0.0 1.6 0.00 1.07 0.00 83 1015.7
20260508093036 9 0 0.0 0.0 0.00 1.07 0.00 81 1015.8
20260508092525 9 0 0.0 0.0 0.00 1.07 0.00 80 1015.8
20260508092024 9 0 0.0 0.0 0.00 1.07 0.00 80 1015.7
20260508091547 9 0 0.0 0.0 0.00 1.07 0.00 80 1015.7
20260508091023 9 0 0.0 0.0 0.00 1.07 0.00 79 1015.7
20260508090523 9 0 0.0 0.0 0.00 1.07 0.00 79 1015.5
20260508090043 9 0 0.0 0.0 0.00 1.07 0.00 77 1015.6
20260508085522 9 0 0.0 0.0 0.00 1.19 0.00 75 1015.5
20260508085022 9 0 0.0 0.0 0.00 1.19 0.00 73 1015.4
20260508084537 9 0 0.0 1.6 0.00 1.19 0.00 73 1015.4
20260508084025 10 0 0.0 1.6 0.00 1.19 0.00 73 1015.4
20260508083524 10 288 0.0 1.6 0.00 1.19 0.00 72 1015.3
20260508083043 10 0 0.0 0.0 0.00 1.19 0.00 71 1015.4
20260508082523 10 0 0.0 1.6 0.00 1.19 0.00 70 1015.4
20260508082024 10 0 0.0 1.6 0.00 1.19 0.00 69 1015.3
20260508081545 10 288 1.6 1.6 0.00 1.19 0.00 69 1015.4
20260508081023 10 0 0.0 0.0 0.00 1.19 0.00 68 1015.4
20260508080527 10 0 0.0 0.0 0.00 1.19 0.00 67 1015.3
20260508080036 10 0 0.0 0.0 0.00 1.19 0.00 67 1015.2
20260508075523 10 0 0.0 0.0 0.00 1.98 0.00 67 1015.2
20260508075023 10 0 0.0 0.0 0.00 1.98 0.00 67 1015.3
20260508074542 10 0 0.0 0.0 0.00 1.98 0.00 66 1015.3
20260508074023 10 0 0.0 1.6 0.00 1.98 0.00 66 1015.2
20260508073523 10 0 0.0 1.6 0.00 1.98 0.00 67 1015.3
20260508073039 10 0 0.0 1.6 0.00 1.98 0.00 69 1015.2
20260508072522 10 0 0.0 1.6 0.00 1.98 0.00 70 1015.3
20260508072022 10 0 0.0 0.0 0.00 1.98 0.00 69 1015.3
20260508071538 10 0 0.0 0.0 0.00 1.98 0.00 68 1015.3
20260508071023 10 0 0.0 0.0 0.00 1.98 0.00 68 1015.2
20260508070525 10 0 0.0 0.0 0.00 1.98 0.00 68 1015.3
20260508070038 10 0 0.0 0.0 0.00 1.98 0.00 68 1015.2
20260508065525 10 0 0.0 0.0 0.00 2.24 0.00 68 1015.3
20260508065023 10 0 0.0 0.0 0.00 2.24 0.00 67 1015.2
20260508064542 10 0 0.0 0.0 0.00 2.24 0.00 67 1015.2
20260508064026 10 0 0.0 0.0 0.00 2.24 0.00 66 1015.2
20260508063526 11 0 0.0 0.0 0.00 2.24 0.00 66 1015.1
20260508063040 11 0 0.0 1.6 0.00 2.24 0.00 66 1015.2
20260508062522 11 0 0.0 1.6 0.00 2.24 0.00 66 1015.2
20260508062023 11 288 0.0 1.6 0.00 2.24 0.00 67 1015.2
20260508061540 11 0 0.0 0.0 0.00 2.24 0.00 66 1015.2
20260508061028 11 0 0.0 0.0 0.00 2.24 0.00 66 1015.3
20260508060525 11 0 0.0 0.0 0.00 2.24 0.00 65 1015.3
20260508060038 11 0 0.0 1.6 0.00 2.24 0.00 65 1015.4
20260508055522 11 0 0.0 1.6 0.00 2.64 0.00 66 1015.3
20260508055022 11 0 0.0 0.0 0.00 2.64 0.00 66 1015.3
20260508054544 11 0 0.0 0.0 0.00 2.64 0.00 66 1015.4
20260508054026 11 0 0.0 0.0 0.00 2.64 0.00 66 1015.4
20260508053526 11 0 0.0 0.0 0.00 2.64 0.00 65 1015.5
20260508053037 11 0 0.0 0.0 0.00 2.64 0.00 65 1015.4
20260508052522 11 0 0.0 0.0 0.00 2.64 0.00 65 1015.3
20260508052022 11 0 0.0 0.0 0.00 2.64 0.00 65 1015.5
20260508051538 12 0 0.0 0.0 0.00 2.64 0.00 65 1015.5
20260508051023 12 0 0.0 0.0 0.00 2.64 0.00 64 1015.4
20260508050524 12 0 0.0 0.0 0.00 2.64 0.00 63 1015.4
20260508050041 12 0 0.0 0.0 0.00 2.64 0.00 63 1015.3
20260508045526 12 0 0.0 0.0 0.00 3.28 0.00 63 1015.2
20260508045025 12 0 0.0 0.0 0.00 3.28 0.00 62 1015.2
20260508044538 12 0 0.0 0.0 0.00 3.28 0.00 62 1015.3
20260508044023 12 0 0.0 0.0 0.00 3.28 0.00 61 1015.3
20260508043523 12 0 0.0 0.0 0.00 3.28 0.00 62 1015.3
20260508043045 12 0 0.0 1.6 0.00 3.28 0.00 62 1015.1
20260508042524 12 0 0.0 1.6 0.00 3.28 0.00 62 1014.9
20260508042024 12 0 0.0 1.6 0.00 3.28 0.00 63 1015.2
20260508041536 12 0 0.0 0.0 0.00 3.28 0.00 64 1015.1
20260508041023 12 0 0.0 0.0 0.00 3.28 0.00 63 1015.2
20260508040523 12 0 0.0 0.0 0.00 3.28 0.00 63 1015.1
20260508040044 12 0 0.0 0.0 0.00 3.28 0.00 62 1014.9
20260508035524 13 0 0.0 0.0 0.00 3.28 3.28 63 1014.9
20260508035025 13 0 0.0 0.0 0.00 3.28 3.28 61 1014.8
20260508034546 13 0 0.0 0.0 0.00 3.28 3.28 61 1014.8
20260508034022 13 0 0.0 0.0 0.00 3.28 3.28 60 1014.9
20260508033522 13 0 0.0 0.0 0.00 3.28 3.28 60 1014.9
20260508033038 13 0 0.0 0.0 0.00 3.28 3.28 59 1014.9